This is the latest recevied weather packets stored in our database for station/object K5IDL. If no packets are shown the sender has not sent any weather packets the latest 10 day(s).
| Time | Temp. | Humidity | Pressure | Rain* | Wind** | Luminosity | Snow |
|---|---|---|---|---|---|---|---|
| 1777584176 | 16.67° C | 74% | 1015.3 hPa | 0 mm | - | 35 W/m² | - |
| 1777583875 | 17.22° C | 74% | 1014.8 hPa | 0 mm | - | 42 W/m² | - |
| 1777583571 | 17.22° C | 74% | 1015 hPa | 0 mm | - | 37 W/m² | - |
| 1777583270 | 17.22° C | 74% | 1014.9 hPa | 0 mm | - | 41 W/m² | - |
| 1777582969 | 17.22° C | 74% | 1014.7 hPa | 0 mm | - | 78 W/m² | - |
| 1777582668 | 17.22° C | 75% | 1015 hPa | 0 mm | - | 85 W/m² | - |
| 1777582357 | 17.22° C | 74% | 1014.7 hPa | 0 mm | - | 82 W/m² | - |
| 1777582056 | 16.67° C | 76% | 1014.7 hPa | 0 mm | - | 66 W/m² | - |
| 1777581750 | 16.67° C | 75% | 1014.7 hPa | 0 mm | - | 63 W/m² | - |
| 1777581449 | 16.67° C | 75% | 1014.8 hPa | 0 mm | - | 61 W/m² | - |
| 1777581144 | 16.67° C | 75% | 1014.4 hPa | 0 mm | - | 65 W/m² | - |
| 1777580839 | 17.22° C | 75% | 1014.7 hPa | 0 mm | - | 67 W/m² | - |
| 1777580529 | 17.22° C | 75% | 1015 hPa | 0 mm | - | 72 W/m² | - |
| 1777580224 | 16.67° C | 75% | 1015 hPa | 0 mm | - | 73 W/m² | - |
| 1777579922 | 16.67° C | 75% | 1015.4 hPa | 0 mm | - | 51 W/m² | - |
| 1777579616 | 16.67° C | 75% | 1015.7 hPa | 0 mm | - | 40 W/m² | - |
| 1777579310 | 16.67° C | 75% | 1015.5 hPa | 0 mm | - | 39 W/m² | - |
| 1777579006 | 16.67° C | 75% | 1015.5 hPa | 0 mm | - | 44 W/m² | - |
| 1777578701 | 16.67° C | 74% | 1015.7 hPa | 0 mm | - | 39 W/m² | - |
| 1777578400 | 16.67° C | 75% | 1015.5 hPa | 0 mm | - | 47 W/m² | - |
| 1777578096 | 17.22° C | 75% | 1015.4 hPa | 0 mm | - | 56 W/m² | - |
| 1777577792 | 17.22° C | 75% | 1015.1 hPa | 0 mm | - | 60 W/m² | - |
| 1777577488 | 16.67° C | 75% | 1015.3 hPa | 0 mm | - | 55 W/m² | - |
| 1777577186 | 17.22° C | 76% | 1015.2 hPa | 0 mm | - | 57 W/m² | - |
| 1777576881 | 16.67° C | 76% | 1015.1 hPa | 0 mm | - | 62 W/m² | - |
* Rain latest hour (hover to see other rain measurements)
** Current wind speed in m/s (hover to see current wind gust speed)